VIVA127 MMAA-MMMX

Flight info

Callsign VIVA127
Flight time 0h 39m
Altitude 30000
Route ALNUS1B ALNUS UT117 ESPOS ESPOS3A
Aircraft A20N/M-SDE2E3FGHIRWXY/LB1

Departure

Time 2026-04-26 20:56
Airport General Juan N. Álvarez International Airport (MMAA)

Arrival

Time 2026-04-26 21:35
Airport Mexico City Benito Juárez International Airport (MMMX)
Time Latitude Longitude Altitude Speed Heading
2026-04-26 20:40 16.76191 -99.75741 28 ft 0 kts 17°
2026-04-26 20:48 16.76176 -99.75746 28 ft 2 kts
2026-04-26 20:49 16.76161 -99.75742 27 ft 2 kts 300°
2026-04-26 20:49 16.76158 -99.75735 27 ft 0 kts 266°
2026-04-26 20:49 16.76157 -99.75738 27 ft 1 kts 266°
2026-04-26 20:49 16.76157 -99.75741 27 ft 0 kts 266°
2026-04-26 20:50 16.76148 -99.75763 26 ft 15 kts 245°
2026-04-26 20:50 16.76117 -99.75810 29 ft 4 kts 200°
2026-04-26 20:50 16.76112 -99.75805 29 ft 1 kts 123°
2026-04-26 20:50 16.76053 -99.75619 27 ft 47 kts 107°
2026-04-26 20:51 16.75899 -99.75329 27 ft 45 kts 115°
2026-04-26 20:51 16.75826 -99.75128 27 ft 45 kts 108°
2026-04-26 20:51 16.75729 -99.74823 27 ft 44 kts 108°
2026-04-26 20:51 16.75608 -99.74421 26 ft 43 kts 107°
2026-04-26 20:52 16.75520 -99.74131 27 ft 42 kts 108°
2026-04-26 20:52 16.75453 -99.73924 29 ft 49 kts 109°
2026-04-26 20:52 16.75354 -99.73616 30 ft 27 kts 108°
2026-04-26 20:52 16.75295 -99.73432 27 ft 21 kts 108°
2026-04-26 20:53 16.75265 -99.73360 27 ft 9 kts 125°
2026-04-26 20:53 16.75224 -99.73332 26 ft 6 kts 166°
2026-04-26 20:53 16.75198 -99.73335 29 ft 3 kts 195°
2026-04-26 20:53 16.75143 -99.73353 26 ft 17 kts 198°
2026-04-26 20:54 16.75095 -99.73405 28 ft 8 kts 262°
2026-04-26 20:54 16.75099 -99.73430 29 ft 0 kts 287°
2026-04-26 20:55 16.75124 -99.73515 26 ft 45 kts 287°
2026-04-26 20:55 16.75300 -99.74110 28 ft 126 kts 286°
2026-04-26 20:56 16.75617 -99.75167 281 ft 173 kts 285°
2026-04-26 20:56 16.76004 -99.76456 893 ft 192 kts 285°
2026-04-26 20:56 16.76061 -99.76635 1011 ft 194 kts 286°
2026-04-26 20:56 16.76372 -99.77601 1487 ft 216 kts 288°
2026-04-26 20:57 16.76877 -99.79172 2153 ft 238 kts 286°
2026-04-26 20:57 16.77296 -99.80494 2560 ft 252 kts 286°
2026-04-26 20:57 16.77850 -99.82252 3189 ft 262 kts 287°
2026-04-26 20:58 16.78426 -99.84078 3901 ft 269 kts 288°
2026-04-26 20:58 16.79014 -99.85948 4709 ft 272 kts 289°
2026-04-26 20:58 16.79751 -99.87777 5483 ft 273 kts 307°
2026-04-26 20:58 16.81220 -99.88979 6276 ft 272 kts 339°
2026-04-26 20:59 16.83078 -99.89425 6942 ft 277 kts 351°
2026-04-26 20:59 16.84975 -99.89737 7592 ft 282 kts 350°
2026-04-26 20:59 16.86288 -99.89985 8057 ft 285 kts 349°
2026-04-26 20:59 16.88889 -99.90568 8953 ft 291 kts 347°
2026-04-26 21:00 16.90880 -99.91069 9669 ft 295 kts 346°
2026-04-26 21:00 16.92875 -99.91595 10177 ft 306 kts 346°
2026-04-26 21:00 16.94996 -99.92179 10441 ft 325 kts 347°
2026-04-26 21:00 16.97300 -99.92335 10661 ft 340 kts 11°
2026-04-26 21:01 16.99488 -99.91369 11082 ft 346 kts 36°
2026-04-26 21:01 17.01352 -99.89815 11680 ft 348 kts 40°
2026-04-26 21:01 17.03253 -99.88240 12302 ft 351 kts 38°
2026-04-26 21:01 17.05243 -99.86742 12966 ft 353 kts 36°
2026-04-26 21:02 17.07292 -99.85310 13612 ft 356 kts 34°
2026-04-26 21:02 17.09384 -99.83914 14226 ft 358 kts 34°
2026-04-26 21:02 17.11519 -99.82524 14749 ft 363 kts 33°
2026-04-26 21:02 17.13691 -99.81133 15315 ft 367 kts 33°
2026-04-26 21:03 17.15888 -99.79735 15838 ft 372 kts 33°
2026-04-26 21:03 17.18114 -99.78324 16421 ft 375 kts 32°
2026-04-26 21:03 17.20320 -99.76904 16972 ft 379 kts 36°
2026-04-26 21:03 17.22584 -99.75449 17471 ft 385 kts 24°
2026-04-26 21:04 17.25218 -99.74837 17951 ft 393 kts
2026-04-26 21:04 17.27959 -99.75179 18452 ft 397 kts 349°
2026-04-26 21:04 17.30654 -99.75732 18904 ft 400 kts 351°
2026-04-26 21:04 17.33415 -99.76146 19390 ft 401 kts 354°
2026-04-26 21:05 17.36200 -99.76418 19890 ft 402 kts 357°
2026-04-26 21:05 17.38999 -99.76597 20370 ft 403 kts 358°
2026-04-26 21:05 17.41814 -99.76722 20872 ft 405 kts 359°
2026-04-26 21:05 17.44636 -99.76818 21365 ft 407 kts 359°
2026-04-26 21:06 17.47472 -99.76898 21864 ft 408 kts 359°
2026-04-26 21:06 17.50326 -99.76970 22377 ft 411 kts 359°
2026-04-26 21:06 17.53149 -99.77036 22877 ft 413 kts 359°
2026-04-26 21:06 17.56036 -99.77100 23362 ft 416 kts 359°
2026-04-26 21:07 17.58940 -99.77164 23795 ft 418 kts 359°
2026-04-26 21:07 17.61868 -99.77228 24214 ft 420 kts 359°
2026-04-26 21:07 17.64796 -99.77291 24647 ft 421 kts 359°
2026-04-26 21:07 17.67743 -99.77355 25054 ft 423 kts 358°
2026-04-26 21:08 17.70648 -99.77417 25506 ft 424 kts 358°
2026-04-26 21:08 17.72646 -99.77460 25752 ft 426 kts 358°
2026-04-26 21:08 17.76586 -99.77545 26269 ft 428 kts 358°
2026-04-26 21:08 17.79588 -99.77652 26572 ft 431 kts 356°
2026-04-26 21:09 17.82591 -99.77807 26963 ft 433 kts 356°
2026-04-26 21:09 17.85573 -99.77969 27310 ft 435 kts 356°
2026-04-26 21:09 17.88647 -99.78136 27682 ft 438 kts 356°
2026-04-26 21:09 17.91655 -99.78299 28000 ft 440 kts 356°
2026-04-26 21:10 17.94734 -99.78465 28367 ft 442 kts 356°
2026-04-26 21:10 17.97813 -99.78631 28713 ft 444 kts 356°
2026-04-26 21:10 18.00876 -99.78795 29058 ft 445 kts 356°
2026-04-26 21:10 18.03992 -99.78962 29420 ft 447 kts 355°
2026-04-26 21:11 18.07099 -99.79129 29727 ft 449 kts 355°
2026-04-26 21:11 18.13365 -99.79466 29785 ft 450 kts 355°
2026-04-26 21:12 18.19613 -99.79800 29776 ft 451 kts 355°
2026-04-26 21:12 18.25914 -99.80139 29776 ft 453 kts 355°
2026-04-26 21:13 18.32205 -99.80477 29793 ft 454 kts 355°
2026-04-26 21:13 18.38532 -99.80817 29790 ft 454 kts 355°
2026-04-26 21:14 18.44824 -99.81156 29787 ft 454 kts 355°
2026-04-26 21:14 18.51144 -99.81497 29817 ft 454 kts 355°
2026-04-26 21:15 18.57419 -99.81835 29814 ft 453 kts 355°
2026-04-26 21:15 18.63732 -99.82176 29841 ft 453 kts 355°
2026-04-26 21:16 18.70010 -99.82514 29428 ft 446 kts 355°
2026-04-26 21:16 18.73066 -99.82752 29209 ft 433 kts 353°
2026-04-26 21:16 18.75998 -99.82600 28904 ft 422 kts 11°
2026-04-26 21:16 18.78687 -99.81476 28583 ft 412 kts 30°
2026-04-26 21:17 18.80813 -99.79513 28307 ft 403 kts 50°
2026-04-26 21:17 18.82125 -99.76957 28052 ft 394 kts 71°
2026-04-26 21:17 18.82462 -99.74141 27800 ft 383 kts 94°
2026-04-26 21:17 18.82152 -99.72329 27595 ft 377 kts 104°
2026-04-26 21:18 18.81507 -99.68751 27086 ft 365 kts 90°
2026-04-26 21:18 18.81593 -99.66133 26640 ft 358 kts 81°
2026-04-26 21:18 18.82041 -99.63572 26248 ft 351 kts 74°
2026-04-26 21:18 18.82709 -99.61119 25819 ft 345 kts 69°
2026-04-26 21:19 18.83506 -99.58743 25390 ft 341 kts 68°
2026-04-26 21:19 18.84374 -99.56422 24990 ft 336 kts 65°
2026-04-26 21:19 18.85270 -99.54157 24564 ft 332 kts 65°
2026-04-26 21:19 18.86181 -99.51925 24131 ft 328 kts 65°
2026-04-26 21:20 18.87092 -99.49726 23768 ft 324 kts 65°
2026-04-26 21:20 18.87988 -99.47585 23483 ft 321 kts 65°
2026-04-26 21:20 18.88893 -99.45432 22980 ft 320 kts 65°
2026-04-26 21:20 18.89796 -99.43289 22529 ft 316 kts 65°
2026-04-26 21:21 18.90686 -99.41180 22088 ft 312 kts 65°
2026-04-26 21:21 18.91555 -99.39120 21645 ft 309 kts 65°
2026-04-26 21:21 18.92147 -99.37719 21314 ft 307 kts 65°
2026-04-26 21:21 18.93291 -99.35002 20833 ft 303 kts 65°
2026-04-26 21:22 18.94073 -99.32948 20396 ft 300 kts 73°
2026-04-26 21:22 18.94517 -99.30802 19963 ft 297 kts 73°
2026-04-26 21:22 18.95385 -99.28877 19531 ft 293 kts 57°
2026-04-26 21:23 18.96985 -99.25006 18709 ft 291 kts 92°
2026-04-26 21:23 18.96730 -99.23624 18480 ft 291 kts 113°
2026-04-26 21:23 18.95006 -99.21472 18016 ft 290 kts 140°
2026-04-26 21:23 18.93479 -99.20098 17787 ft 287 kts 136°
2026-04-26 21:24 18.92054 -99.18622 17761 ft 287 kts 132°
2026-04-26 21:24 18.90722 -99.17052 17760 ft 287 kts 129°
2026-04-26 21:24 18.89449 -99.15418 17756 ft 288 kts 128°
2026-04-26 21:24 18.88349 -99.13699 17730 ft 285 kts 108°
2026-04-26 21:25 18.87902 -99.11676 17736 ft 283 kts 99°
2026-04-26 21:25 18.87598 -99.09620 17716 ft 283 kts 97°
2026-04-26 21:25 18.87340 -99.07556 17425 ft 284 kts 91°
2026-04-26 21:25 18.87498 -99.05500 17019 ft 283 kts 75°
2026-04-26 21:26 18.88297 -99.03623 16647 ft 280 kts 52°
2026-04-26 21:26 18.89736 -99.02267 16294 ft 277 kts 28°
2026-04-26 21:26 18.91570 -99.01698 15967 ft 275 kts
2026-04-26 21:26 18.93467 -99.01617 15699 ft 271 kts
2026-04-26 21:27 18.95324 -99.01608 15366 ft 270 kts
2026-04-26 21:27 18.97207 -99.01596 14986 ft 270 kts
2026-04-26 21:27 18.99075 -99.01575 14666 ft 267 kts
2026-04-26 21:27 19.00929 -99.01545 14332 ft 266 kts
2026-04-26 21:28 19.02782 -99.01511 14021 ft 265 kts
2026-04-26 21:28 19.04620 -99.01474 13774 ft 263 kts
2026-04-26 21:28 19.06452 -99.01435 13422 ft 262 kts
2026-04-26 21:28 19.08251 -99.01397 13095 ft 260 kts
2026-04-26 21:29 19.10064 -99.01358 12809 ft 261 kts
2026-04-26 21:29 19.11892 -99.01318 12655 ft 262 kts
2026-04-26 21:29 19.13749 -99.01277 12894 ft 275 kts
2026-04-26 21:29 19.15739 -99.01234 13167 ft 297 kts
2026-04-26 21:30 19.17863 -99.01254 13116 ft 309 kts 352°
2026-04-26 21:30 19.19818 -99.02086 12590 ft 308 kts 321°
2026-04-26 21:30 19.21284 -99.03707 12361 ft 300 kts 310°
2026-04-26 21:30 19.22155 -99.04815 12338 ft 290 kts 310°
2026-04-26 21:31 19.23880 -99.06888 12355 ft 269 kts 313°
2026-04-26 21:31 19.25141 -99.08306 12367 ft 261 kts 314°
2026-04-26 21:31 19.26371 -99.09678 12162 ft 260 kts 314°
2026-04-26 21:31 19.27665 -99.11024 11785 ft 262 kts 322°
2026-04-26 21:32 19.29217 -99.12027 11442 ft 262 kts 336°
2026-04-26 21:32 19.30917 -99.12712 11135 ft 261 kts 341°
2026-04-26 21:32 19.32628 -99.13293 10998 ft 252 kts 342°
2026-04-26 21:32 19.34255 -99.13817 10955 ft 235 kts 343°
2026-04-26 21:33 19.35788 -99.14303 10659 ft 231 kts 343°
2026-04-26 21:33 19.37357 -99.14739 10142 ft 237 kts 356°
2026-04-26 21:33 19.38961 -99.14328 9491 ft 244 kts 33°
2026-04-26 21:33 19.40249 -99.13182 9170 ft 238 kts 51°
2026-04-26 21:34 19.41052 -99.11717 8951 ft 222 kts 65°
2026-04-26 21:34 19.41497 -99.10761 8565 ft 220 kts 62°
2026-04-26 21:34 19.42530 -99.08848 7524 ft 219 kts 57°
2026-04-26 21:34 19.43308 -99.07541 7307 ft 203 kts 60°
2026-04-26 21:35 19.43941 -99.06378 7305 ft 164 kts 60°
2026-04-26 21:35 19.44406 -99.05534 7306 ft 84 kts 59°
2026-04-26 21:35 19.44404 -99.05265 7307 ft 27 kts 185°
2026-04-26 21:35 19.44304 -99.05327 7306 ft 24 kts 215°
2026-04-26 21:36 19.44202 -99.05426 7300 ft 5 kts 250°
2026-04-26 21:36 19.44200 -99.05432 7302 ft 0 kts 250°
2026-04-26 21:36 19.44194 -99.05456 7306 ft 2 kts 256°
2026-04-26 21:36 19.44189 -99.05478 7306 ft 18 kts 256°
2026-04-26 21:37 19.44220 -99.05756 7302 ft 26 kts 290°
2026-04-26 21:37 19.44285 -99.05928 7305 ft 24 kts 292°
2026-04-26 21:37 19.44327 -99.06034 7304 ft 23 kts 292°
2026-04-26 21:37 19.44386 -99.06185 7305 ft 21 kts 292°
2026-04-26 21:38 19.44406 -99.06274 7305 ft 17 kts 266°
2026-04-26 21:38 19.44345 -99.06441 7306 ft 29 kts 243°
2026-04-26 21:38 19.44216 -99.06695 7307 ft 48 kts 240°
2026-04-26 21:38 19.44008 -99.07044 7307 ft 63 kts 237°
2026-04-26 21:39 19.43773 -99.07452 7305 ft 64 kts 242°
2026-04-26 21:39 19.43553 -99.07849 7305 ft 61 kts 241°
2026-04-26 21:39 19.43468 -99.08014 7306 ft 1 kts 252°
2026-04-26 21:39 19.43461 -99.08075 7306 ft 0 kts 273°
2026-04-26 21:40 19.43464 -99.08081 7306 ft 0 kts 294°
2026-04-26 21:40 19.43467 -99.08082 7306 ft 0 kts 327°
2026-04-26 21:40 19.43484 -99.08089 7305 ft 1 kts 333°
2026-04-26 21:40 19.43520 -99.08111 7305 ft 6 kts 330°
2026-04-26 21:41 19.43531 -99.08117 7305 ft 0 kts 330°